Flag for Greenland Weather past 2 weeks in Ittoqqortoormiit, Greenland

Now
17 °F

Passing clouds.


Feels Like: -1 °F
Forecast: 9 / 21 °F
Wind: 24 mph from North

Location: Scoresbysund

Current Time: Apr 26, 2015 at 6:36:28 AM

Latest Report: Apr 26, 2015 at 6:00 AM


Visibility: 31 mi

Pressure: 30.58 "Hg

Humidity: 43%

Dew point: -2 °F

Location of IttoqqortoormiitLocation

Historic Weather in Ittoqqortoormiit — Graph

°F

Ittoqqortoormiit temperature yesterday

Maximum temperature yesterday: 21 °F (at 3:00 PM)
Minimum temperature yesterday: 14 °F (at 10:00 PM)
Average temperature yesterday: 17 °F

Past Weeks' High & Low Weather Summary

 TemperatureHumidityPressure
High43 °F (Apr 18, 6:00 PM)100% (Apr 16, 11:00 PM)30.66 "Hg (Apr 16, 11:00 PM)
Low-3 °F (Apr 12, 7:00 AM)32% (Apr 15, 11:00 AM)29.15 "Hg (Apr 14, 5:00 AM)
Average21 °F72%29.76 "Hg
* Reported Apr 11 5:00 AM — Apr 26 5:00 AM, Ittoqqortoormiit, Weather by CustomWeather, © 2015

Note: Actual official high and low records may vary slightly from our data, if they occured in-between our weather recording intervals... More about our weather records

Advertising

Ittoqqortoormiit weather history for previous 24 hours

 ConditionsComfort  
Time TempWeatherWind HumidityBarometerVisibility
5:00 AM
Sun, Apr 26
15 °FSunny.15 mph55%30.61 "Hg31 mi
4:00 AM15 °FCold.10 mph63%30.62 "Hg31 mi
2:00 AM16 °FOvercast.7 mph60%30.64 "Hg31 mi
1:00 AM15 °FOvercast.3 mph63%30.66 "Hg31 mi
12:00 AM14 °FOvercast.2 mph67%30.66 "Hg31 mi
11:00 PM
Sat, Apr 25
15 °FOvercast.3 mph64%30.66 "Hg31 mi
10:00 PM14 °FPartly sunny.3 mph69%30.65 "Hg31 mi
9:00 PM17 °FPartly sunny.2 mph61%30.64 "Hg31 mi
8:00 PM17 °FPassing clouds.7 mph62%30.63 "Hg28 mi
7:00 PM16 °FSunny.14 mph68%30.61 "Hg31 mi
6:00 PM17 °FSunny.15 mph66%30.59 "Hg28 mi
5:00 PM18 °FSunny.13 mph63%30.58 "Hg28 mi
4:00 PM21 °FSunny.5 mph57%30.57 "Hg25 mi
3:00 PM21 °FSunny.5 mph60%30.56 "Hg22 mi
1:00 PM19 °FPartly sunny.7 mph55%30.53 "Hg28 mi
12:00 PM17 °FSunny.13 mph63%30.51 "Hg25 mi
11:00 AM17 °FSunny.13 mph63%30.50 "Hg28 mi
10:00 AM16 °FSunny.13 mph72%30.50 "Hg22 mi
9:00 AM16 °FSunny.7 mph80%30.48 "Hg25 mi
8:00 AM17 °FScattered clouds.3 mph64%30.45 "Hg31 mi
7:00 AM14 °FSunny.8 mph63%30.43 "Hg31 mi
6:00 AM15 °FPassing clouds.9 mph63%30.41 "Hg31 mi
Weather by CustomWeather, © 2015

See weather overviewHow to use our weather pages